Location: Unspecified
(0.0000°N, 0.0000°E)
Time: 12:39:34
(UTC+00:00)

RS-3 - Visible Passes

Search period start: 26 September 2022 00:00
Search period end: 06 October 2022 00:00
Orbit: 1565 x 1656 km, 83.0° (Epoch: 25 September)

Date Brightness Start Highest point End Pass type
(mag) Time Alt. Az. Time Alt. Az. Time Alt. Az.
26 Sep ? 19:33:10 10° S 19:42:33 77° W 19:52:03 10° N visible
27 Sep ? 19:15:01 10° S 19:24:26 89° E 19:33:59 10° N visible
28 Sep ? 18:56:57 10° S 19:06:20 75° E 19:15:49 10° N visible
28 Sep ? 21:01:42 10° WSW 21:05:17 13° W 21:08:54 10° WNW visible
29 Sep ? 18:38:58 10° S 18:48:14 61° E 18:57:33 10° NNE visible
29 Sep ? 20:41:40 10° SW 20:47:10 17° W 20:52:43 10° NW visible
30 Sep ? 18:21:07 10° SSE 18:30:07 50° E 18:39:11 10° NNE visible
30 Sep ? 20:22:21 10° SW 20:29:03 22° W 20:35:50 10° NW visible
01 Oct ? 05:17:56 10° ENE 05:21:47 13° E 05:25:36 10° ESE visible
01 Oct ? 18:03:22 10° SSE 18:12:01 41° E 18:20:42 10° NNE visible
01 Oct ? 20:03:21 10° SW 20:10:55 28° W 20:18:36 10° NNW visible
02 Oct ? 19:44:35 10° SSW 19:52:49 35° W 20:01:09 10° NNW visible
03 Oct ? 19:25:59 10° SSW 19:34:42 43° W 19:43:31 10° NNW visible
04 Oct ? 19:07:31 10° SSW 19:16:35 53° W 19:25:46 10° NNW visible
05 Oct ? 18:49:09 10° SSW 18:58:29 64° W 19:07:53 10° N visible
